Location: LDNL
(36.4545°S, 141.6685°E)
Time: 21:34:47
(UTC+11:00)

Courier 1B Rocket - Pass Details

Date: 04 February 2023
Orbit: 920 x 1202 km, 28.2° (Epoch: 26 March)

Event Time Altitude Azimuth Distance (km) Brightness Sun altitude
Rises 07:04:59 0° 290° (WNW) 4,071 7.5 1.5°
Reaches altitude 10° 07:07:56 10° 296° (WNW) 3,126 7.0 2.1°
Maximum altitude 07:15:18 45° 5° (N) 1,581 6.1 3.5°
Drops below altitude 10° 07:22:38 10° 75° (ENE) 3,107 8.8 4.9°
Sets 07:25:33 0° 80° (E) 4,044 9.6 5.5°
